Change the Weather History Date:

Thursday, November 1, 2012

  Actual Average Record
Temperature  
Mean Temperature 38 °F -  
Max Temperature 48 °F 50 °F 77 °F (1950)
Min Temperature 26 °F 32 °F 1 °F (1996)
Degree Days  
Heating Degree Days 27    
Moisture  
Dew Point 30 °F    
Average Humidity 77    
Maximum Humidity 93    
Minimum Humidity 56    
Precipitation  
Precipitation 0.00 in - - ()
Sea Level Pressure  
Sea Level Pressure 30.05 in    
Wind  
Wind Speed 12 mph (North)    
Max Wind Speed 16 mph    
Max Gust Speed 22 mph    
Visibility 10 miles    
Events      
Averages and records for this station are not official NWS values.
T = Trace of Precipitation, MM = Missing Value Source: NWS Daily Summary

Daily Weather History Graph

Daily Weather History Graph

Search for Another Location

Airport or City:

Trip Planner

Search our weather history database for the weather conditions in past years. The results will help you decide how hot, cold, wet, or windy it might be!

Date:

Astronomy

Nov. 01, 2012 Rise Set
Actual Time 8:01 AM CDT 6:10 PM CDT
Civil Twilight 7:31 AM CDT 6:40 PM CDT
Nautical Twilight 6:56 AM CDT 7:15 PM CDT
Astronomical Twilight 6:22 AM CDT 7:49 PM CDT
Moon 8:02 PM CDT (11/1) 10:41 AM CDT (11/1)
Length of Visible Light 11h 09m
Length of Day
10h 08m
Waning Gibbous, 93% of the Moon is Illuminated
Nov 1
Waning Gibbous
Nov 6
Last Quarter
Nov 13
New
Nov 20
First Quarter
Nov 28
Full

Hourly Weather History & Observations

Time (CDT) Temp. Windchill Dew Point Humidity Pressure Visibility Wind Dir Wind Speed Gust Speed Precip Events Conditions
12:14 AM 48.2 °F - 39.2 °F 71% 29.97 in 10.0 mi North 12.7 mph - N/A   Overcast
12:34 AM 46.4 °F 39.8 °F 39.2 °F 76% 29.97 in 10.0 mi North 16.1 mph 19.6 mph N/A   Overcast
12:54 AM 46.4 °F 40.1 °F 39.2 °F 76% 29.98 in 10.0 mi NNE 15.0 mph 20.7 mph N/A   Overcast
1:14 AM 44.6 °F 38.1 °F 39.2 °F 81% 29.99 in 10.0 mi North 13.8 mph 19.6 mph N/A   Overcast
1:34 AM 44.6 °F 39.2 °F 39.2 °F 81% 29.99 in 10.0 mi North 10.4 mph 16.1 mph N/A   Overcast
1:54 AM 42.8 °F 35.1 °F 39.2 °F 87% 30.00 in 10.0 mi North 16.1 mph - N/A   Overcast
2:14 AM 42.8 °F 36.6 °F 39.2 °F 87% 30.00 in 7.0 mi North 11.5 mph 18.4 mph N/A   Overcast
2:34 AM 42.8 °F 38.0 °F 39.2 °F 87% 30.01 in 7.0 mi North 8.1 mph - N/A   Overcast
3:14 AM 41.0 °F 33.9 °F 39.2 °F 93% 30.02 in 7.0 mi North 12.7 mph - N/A   Overcast
3:34 AM 39.2 °F 32.0 °F 37.4 °F 93% 30.02 in 7.0 mi North 11.5 mph - N/A   Mostly Cloudy
3:54 AM 39.2 °F 31.6 °F 37.4 °F 93% 30.01 in 7.0 mi North 12.7 mph 16.1 mph N/A   Overcast
4:14 AM 41.0 °F 33.1 °F 37.4 °F 87% 30.01 in 10.0 mi North 15.0 mph - N/A   Overcast
4:34 AM 39.2 °F 30.8 °F 37.4 °F 93% 30.02 in 10.0 mi North 15.0 mph - N/A   Overcast
5:14 AM 41.0 °F 33.1 °F 35.6 °F 81% 30.03 in 10.0 mi North 15.0 mph 19.6 mph N/A   Overcast
5:34 AM 39.2 °F 32.0 °F 35.6 °F 87% 30.03 in 10.0 mi North 11.5 mph 18.4 mph N/A   Overcast
5:54 AM 39.2 °F 31.2 °F 35.6 °F 87% 30.04 in 10.0 mi North 13.8 mph 20.7 mph N/A   Overcast
6:14 AM 39.2 °F 31.2 °F 35.6 °F 87% 30.05 in 10.0 mi North 13.8 mph - N/A   Overcast
6:34 AM 39.2 °F 31.2 °F 33.8 °F 81% 30.05 in 10.0 mi North 13.8 mph - N/A   Overcast
6:54 AM 37.4 °F 29.3 °F 33.8 °F 87% 30.05 in 10.0 mi North 12.7 mph - N/A   Overcast
7:14 AM 37.4 °F 29.3 °F 33.8 °F 87% 30.05 in 10.0 mi North 12.7 mph - N/A   Overcast
7:34 AM 37.4 °F 29.3 °F 33.8 °F 87% 30.05 in 10.0 mi North 12.7 mph 19.6 mph N/A   Overcast
7:54 AM 35.6 °F 26.6 °F 33.8 °F 93% 30.06 in 10.0 mi North 13.8 mph - N/A   Overcast
8:34 AM 35.6 °F 26.6 °F 32.0 °F 87% 30.06 in 10.0 mi North 13.8 mph 20.7 mph N/A   Overcast
8:54 AM 35.6 °F 27.1 °F 30.2 °F 81% 30.07 in 10.0 mi North 12.7 mph 17.3 mph N/A   Overcast
9:14 AM 35.6 °F 26.6 °F 30.2 °F 81% 30.07 in 10.0 mi North 13.8 mph 20.7 mph N/A   Overcast
9:34 AM 35.6 °F 25.9 °F 30.2 °F 81% 30.07 in 10.0 mi North 16.1 mph - N/A   Overcast
10:14 AM 35.6 °F 26.6 °F 30.2 °F 81% 30.08 in 10.0 mi North 13.8 mph 18.4 mph N/A   Overcast
10:34 AM 35.6 °F 26.2 °F 30.2 °F 81% 30.08 in 10.0 mi North 15.0 mph - N/A   Overcast
10:54 AM 35.6 °F 26.6 °F 30.2 °F 81% 30.09 in 10.0 mi North 13.8 mph 18.4 mph N/A   Overcast
11:14 AM 35.6 °F 27.1 °F 28.4 °F 75% 30.08 in 10.0 mi North 12.7 mph - N/A   Overcast
11:34 AM 37.4 °F 29.8 °F 28.4 °F 70% 30.08 in 10.0 mi NNE 11.5 mph 17.3 mph N/A   Overcast
11:53 AM 37.4 °F 28.5 °F 28.4 °F 70% 30.08 in 10.0 mi NE 15.0 mph - N/A   Mostly Cloudy
12:14 PM 37.4 °F 30.8 °F 28.4 °F 70% 30.08 in 10.0 mi North 9.2 mph 20.7 mph N/A   Mostly Cloudy
12:34 PM 37.4 °F 28.9 °F 28.4 °F 70% 30.08 in 10.0 mi North 13.8 mph 18.4 mph N/A   Mostly Cloudy
1:14 PM 39.2 °F 30.8 °F 28.4 °F 65% 30.07 in 10.0 mi NNE 15.0 mph 19.6 mph N/A   Scattered Clouds
1:34 PM 39.2 °F 30.8 °F 28.4 °F 65% 30.06 in 10.0 mi North 15.0 mph - N/A   Clear
1:54 PM 39.2 °F 30.5 °F 26.6 °F 61% 30.05 in 10.0 mi North 16.1 mph 19.6 mph N/A   Clear
2:14 PM 39.2 °F 30.8 °F 28.4 °F 65% 30.04 in 10.0 mi North 15.0 mph 19.6 mph N/A   Clear
2:34 PM 41.0 °F 32.8 °F 28.4 °F 61% 30.04 in 10.0 mi NNE 16.1 mph 21.9 mph N/A   Clear
2:54 PM 41.0 °F 33.1 °F 28.4 °F 61% 30.04 in 10.0 mi North 15.0 mph 18.4 mph N/A   Clear
3:14 PM 41.0 °F 33.9 °F 26.6 °F 57% 30.04 in 10.0 mi North 12.7 mph 18.4 mph N/A   Clear
3:34 PM 41.0 °F 33.5 °F 26.6 °F 57% 30.04 in 10.0 mi NNE 13.8 mph - N/A   Clear
3:53 PM 41.0 °F 34.3 °F 26.6 °F 57% 30.04 in 10.0 mi North 11.5 mph - N/A   Clear
4:14 PM 41.0 °F 33.9 °F 26.6 °F 57% 30.04 in 10.0 mi North 12.7 mph - N/A   Clear
4:53 PM 41.0 °F 33.9 °F 26.6 °F 57% 30.04 in 10.0 mi North 12.7 mph - N/A   Clear
5:14 PM 39.2 °F 30.8 °F 24.8 °F 56% 30.03 in 10.0 mi NNE 15.0 mph - N/A   Clear
5:34 PM 39.2 °F 33.0 °F 24.8 °F 56% 30.04 in 10.0 mi North 9.2 mph - N/A   Clear
5:53 PM 39.2 °F 33.0 °F 24.8 °F 56% 30.04 in 10.0 mi North 9.2 mph - N/A   Clear
6:14 PM 37.4 °F 31.4 °F 24.8 °F 60% 30.04 in 10.0 mi North 8.1 mph - N/A   Clear
6:34 PM 35.6 °F 29.2 °F 24.8 °F 65% 30.03 in 10.0 mi NNE 8.1 mph - N/A   Clear
6:53 PM 35.6 °F 29.2 °F 24.8 °F 65% 30.04 in 10.0 mi NNE 8.1 mph - N/A   Clear
7:14 PM 33.8 °F 27.7 °F 24.8 °F 70% 30.04 in 10.0 mi NNE 6.9 mph - N/A   Clear
7:34 PM 33.8 °F 27.0 °F 24.8 °F 70% 30.05 in 10.0 mi North 8.1 mph - N/A   Clear
7:53 PM 32.0 °F 25.6 °F 24.8 °F 75% 30.05 in 10.0 mi North 6.9 mph - N/A   Clear
8:14 PM 32.0 °F 24.8 °F 24.8 °F 75% 30.06 in 10.0 mi North 8.1 mph - N/A   Clear
8:34 PM 30.2 °F 22.6 °F 24.8 °F 80% 30.06 in 10.0 mi NNE 8.1 mph - N/A   Clear
8:54 PM 30.2 °F 23.4 °F 24.8 °F 80% 30.06 in 10.0 mi NNE 6.9 mph - N/A   Clear
9:14 PM 30.2 °F 23.4 °F 24.8 °F 80% 30.07 in 10.0 mi North 6.9 mph - N/A   Clear
9:34 PM 28.4 °F 22.2 °F 24.8 °F 86% 30.07 in 10.0 mi North 5.8 mph - N/A   Clear
9:54 PM 28.4 °F 23.3 °F 24.8 °F 86% 30.07 in 10.0 mi NNE 4.6 mph - N/A   Clear
10:14 PM 28.4 °F 24.6 °F 24.8 °F 86% 30.08 in 10.0 mi North 3.5 mph - N/A   Clear
10:34 PM 28.4 °F 22.2 °F 24.8 °F 86% 30.07 in 10.0 mi NE 5.8 mph - N/A   Clear
10:54 PM 28.4 °F 23.3 °F 24.8 °F 86% 30.08 in 10.0 mi NE 4.6 mph - N/A   Clear
11:14 PM 28.4 °F 23.3 °F 24.8 °F 86% 30.09 in 10.0 mi NE 4.6 mph - N/A   Clear
11:34 PM 28.4 °F 23.3 °F 24.8 °F 86% 30.09 in 10.0 mi NE 4.6 mph - N/A   Clear
11:54 PM 26.6 °F 22.6 °F 24.8 °F 93% 30.08 in 10.0 mi ENE 3.5 mph - N/A   Clear